Location: El Mouella
(16.4949°N, 9.1594°W)
Time: 14:08:26
(UTC+00:00)

OAO 3 Copernicus - Pass Details

Date: 02 June 2020
Orbit: 695 x 704 km, 35.0° (Epoch: 04 July)

Event Time Altitude Azimuth Distance (km) Brightness Sun altitude
Rises 20:18:30 0° 299° (WNW) 3,072 9.5 -16.3°
Reaches altitude 10° 20:20:55 10° 296° (WNW) 2,153 8.2 -16.8°
Maximum altitude 20:25:55 64° 215° (SW) 766 4.5 -17.8°
Enters shadow 20:28:07 32° 144° (SE) 1,174 5.0 -18.2°
